This demonstration page uses our WeatherBlox Daily Observations layout. Learn more.

Left ArrowRight Arrow

Hourly Observations for December 1, 2022

Temp ( °F °C ) Dew Point ( °F °C ) Humidity (%) Winds ( mph kmh ) Pressure ( in mb ) Visibility ( mi km ) Precip ( " mm )
12:54 am 00:54 Clear 35 1.7 18 -7.8 49 49 WNW 12 19 30.03 1017 10 16 0.00 0.00
1:54 am 01:54 Mostly Cloudy 36 2.2 19 -7.2 50 50 WNW 15 24 30.04 1017 10 16 0.00 0.00
2:54 am 02:54 Cloudy 37 2.8 19 -7.2 48 48 WNW 13 20 30.08 1019 10 16 0.00 0.00
3:54 am 03:54 Mostly Cloudy with Light Snow 37 2.8 16 -8.9 42 42 WNW 22 35 30.10 1019 9 14 0.01 0.13
4:54 am 04:54 Mostly Clear 36 2.2 15 -9.4 42 42 WNW 23 37 30.15 1021 10 16 0.01 0.13
5:54 am 05:54 Clear 34 1.1 15 -9.4 45 45 WNW 22 35 30.18 1022 10 16 0.00 0.00
6:54 am 06:54 Clear 34 1.1 16 -8.9 47 47 WNW 18 30 30.23 1024 10 16 0.00 0.00
7:54 am 07:54 Sunny 34 1.1 16 -8.9 47 47 W 12 19 30.27 1025 10 16 0.00 0.00
8:54 am 08:54 Mostly Cloudy 35 1.7 17 -8.3 47 47 WNW 15 24 30.30 1026 10 16 0.00 0.00
9:54 am 09:54 Cloudy 37 2.8 18 -7.8 45 45 WNW 16 26 30.34 1027 10 16 0.00 0.00
10:54 am 10:54 Partly Cloudy 39 3.9 18 -7.8 42 42 NW 23 37 30.35 1028 10 16 0.00 0.00
11:54 am 11:54 Partly Cloudy 40 4.4 19 -7.2 43 43 NW 18 30 30.35 1028 10 16 0.00 0.00
12:54 pm 12:54 Mostly Sunny 42 5.6 20 -6.7 41 41 WNW 20 31 30.36 1028 10 16 0.00 0.00
1:54 pm 13:54 Sunny 42 5.6 20 -6.7 41 41 WNW 18 30 30.37 1029 10 16 0.00 0.00
2:54 pm 14:54 Mostly Sunny 41 5 19 -7.2 41 41 W 20 31 30.39 1029 10 16 0.00 0.00
3:54 pm 15:54 Sunny 40 4.4 19 -7.2 43 43 WNW 16 26 30.42 1030 10 16 0.00 0.00
4:54 pm 16:54 Clear 37 2.8 19 -7.2 48 48 WNW 12 19 30.45 1031 10 16 0.00 0.00
5:54 pm 17:54 Clear 34 1.1 19 -7.2 54 54 NW 3 6 30.48 1032 10 16 0.00 0.00
6:54 pm 18:54 Clear 33 0.6 19 -7.2 56 56 WSW 6 9 30.48 1032 10 16 0.00 0.00
8:54 pm 20:54 Clear 32 0 19 -7.2 58 58 Calm 30.48 1032 10 16 0.00 0.00
9:54 pm 21:54 Clear 31 -0.6 19 -7.2 61 61 W 6 9 30.50 1033 10 16 0.00 0.00
10:54 pm 22:54 Clear 30 -1.1 20 -6.7 66 66 W 5 7 30.50 1033 10 16 0.00 0.00
11:54 pm 23:54 Clear 29 -1.7 19 -7.2 66 66 W 3 6 30.52 1034 10 16 0.00 0.00

Powered by AerisWeather